This is the latest recevied weather packets stored in our database for station/object I3RKE-10. If no packets are shown the sender has not sent any weather packets the latest 10 day(s).
| Time | Temp. | Humidity | Pressure | Rain* | Wind** | Luminosity | Snow |
|---|---|---|---|---|---|---|---|
| 1777975018 | 19.44° C | 63% | 1008.5 hPa | - | - | - | - |
| 1777974117 | 19.44° C | 61% | 1008.4 hPa | - | - | - | - |
| 1777973217 | 19.44° C | 57% | 1008.5 hPa | - | - | - | - |
| 1777972317 | 20° C | 58% | 1008.6 hPa | - | - | - | - |
| 1777971417 | 19.44° C | 61% | 1008.6 hPa | - | - | - | - |
| 1777970517 | 19.44° C | 60% | 1008.5 hPa | - | - | - | - |
| 1777969617 | 19.44° C | 60% | 1008.3 hPa | - | - | - | - |
| 1777968717 | 18.89° C | 58% | 1008.1 hPa | - | - | - | - |
| 1777967817 | 18.89° C | 56% | 1008.2 hPa | - | - | - | - |
| 1777966917 | 18.89° C | 56% | 1007.9 hPa | - | - | - | - |
| 1777966016 | 19.44° C | 56% | 1008 hPa | - | - | - | - |
| 1777965116 | 18.89° C | 57% | 1008 hPa | - | - | - | - |
| 1777964216 | 18.89° C | 58% | 1008 hPa | - | - | - | - |
| 1777963316 | 19.44° C | 58% | 1007.9 hPa | - | - | - | - |
| 1777962416 | 18.89° C | 60% | 1007.8 hPa | - | - | - | - |
| 1777961516 | 17.78° C | 64% | 1007.9 hPa | - | - | - | - |
| 1777960616 | 17.78° C | 65% | 1007.9 hPa | - | - | - | - |
| 1777959716 | 17.22° C | 67% | 1007.5 hPa | - | - | - | - |
| 1777958816 | 16.67° C | 69% | 1007.6 hPa | - | - | - | - |
| 1777957916 | 16.67° C | 68% | 1007.5 hPa | - | - | - | - |
| 1777957016 | 16.11° C | 71% | 1007.6 hPa | - | - | - | - |
| 1777956115 | 16.11° C | 74% | 1007.7 hPa | - | - | - | - |
| 1777955215 | 16.11° C | 75% | 1007.7 hPa | - | - | - | - |
| 1777954315 | 15.56° C | 76% | 1007.6 hPa | - | - | - | - |
| 1777953415 | 15.56° C | 76% | 1007.6 hPa | - | - | - | - |
* Rain since midnight (hover to see other rain measurements)
** Current wind speed in m/s (hover to see current wind gust speed)